Regional Weather Roundup
Issued by NWS

Home | Current Version | Previous Version | Text Only | Print | Product List | Glossary On
Versions: 1 2 3 4 5 6 7 8 9 10 11 12 13 14 15 16 17 18 19 20 21 22 23 24 25 26 27 28 29 30 31 32 33 34 35 36 37 38 39 40 41 42 43 44 45 46 47 48 49 50
000
ASUS45 KABQ 190510
RWRNM
WEATHER ROUNDUP FOR NEW MEXICO
NATIONAL WEATHER SERVICE ALBUQUERQUE NM
1100 PM MDT FRI APR 18 2014

NOTE: "FAIR" MEANS FEW OR NO CLOUDS BELOW 12,000 FEET AGL WITH NO
       SIGNIFICANT WEATHER OR OBSTRUCTIONS TO VISION.

      THIS PRODUCT IS RELEASED AS TWO VERSIONS.  ONE VERSION NEAR
      THE TOP OF THE HOUR CONTAINING PRELIMINARY DATA FROM ALBUQUERQUE
      AND OTHER STATIONS.  A FINAL VERSION WITH ADDITIONAL DATA IS
      ISSUED ABOUT 10 MINUTES AFTER THE HOUR.

NMZ501-503-504-510>518-190600-
NORTHWEST PLATEAU/NORTHCENTRAL MOUNTAINS

CITY           SKY/WX    TMP DP  RH WIND       PRES   REMARKS
FARMINGTON     MOCLDY    58  31  35 W7        30.07R
LOS ALAMOS     PTCLDY    58  25  28 S12       30.15R
SANTA FE       CLOUDY    60  28  29 SW20G28   30.12R
TAOS           MOCLDY    54  21  28 SE3       30.15S
ANGEL FIRE     FAIR      43  33  68 S9        30.20S

$$
NMZ402-403-502-505>509-190600-
WESTCENTRAL MOUNTAINS/SOUTHWEST MOUNTAINS

CITY           SKY/WX    TMP DP  RH WIND       PRES   REMARKS
GALLUP         CLOUDY    48  39  71 S6        30.18S
GRANTS         CLOUDY    51  36  55 CALM      30.18F
SILVER CITY    CLOUDY    59  34  38 N10       30.11F

$$
NMZ407-409-411-412-190600-
SOUTHERN DESERTS

CITY           SKY/WX    TMP DP  RH WIND       PRES   REMARKS
LORDSBURG      FAIR      55  43  62 W8        30.04F
DEMING         CLOUDY    64  37  36 N10       30.04F
LAS CRUCES     MOCLDY    65  32  28 SW8       30.06R
HOLLOMAN AFB   MOCLDY    61  52  72 NE6       30.04S
ALAMOGORDO     CLOUDY    63  48  59 NW3       30.05S
T OR C         CLOUDY    65  29  25 CALM      30.07R

$$
NMZ519>523-190600-
CENTRAL VALLEYS/CENTRAL HIGHLANDS

CITY           SKY/WX    TMP DP  RH WIND       PRES   REMARKS
ALBUQUERQUE    LGT RAIN  62  36  37 W29G37    30.14R
DOUBLE EAGLE   LGT RAIN  57  37  46 SW25G31   30.17R
MORIARTY ARPT  CLOUDY    60  29  31 W22G30    30.16R
CLINES CORNERS MOCLDY    53  37  54 SW17      30.16R
BELEN          LGT RAIN  60  37  43 SW10      30.13S
SOCORRO        FAIR      63  35  34 SE9       30.10F

$$
NMZ524>526-539-540-190600-
SOUTHCENTRAL MOUNTAINS

CITY           SKY/WX    TMP DP  RH WIND       PRES   REMARKS
RUIDOSO        CLOUDY    54  41  62 SW13G22   30.23S

$$
NMZ527>531-190600-
NORTHEAST HIGHLANDS/NORTHEAST PLAINS

CITY           SKY/WX    TMP DP  RH WIND       PRES   REMARKS
LAS VEGAS      MOCLDY    50  37  61 S14       30.15R
RATON          MOCLDY    54  36  50 S14       30.08S
CLAYTON        MOCLDY    57  40  52 S13       30.05S

$$
NMZ532>537-190600-
EASTCENTRAL PLAINS

CITY           SKY/WX    TMP DP  RH WIND       PRES   REMARKS
TUCUMCARI      MOCLDY    63  44  50 S20G30    30.03S
CANNON AFB     NOT AVBL
CLOVIS AIRPORT CLOUDY    54  43  66 S8        30.13S

$$
NMZ028-029-538-190600-
SOUTHEAST PLAINS

CITY           SKY/WX    TMP DP  RH WIND       PRES   REMARKS
ROSWELL        CLOUDY    65  44  46 SE9       30.06R
ARTESIA        CLOUDY    64  45  48 S10       30.06S
CARLSBAD       CLOUDY    68  45  43 SE12      30.04F
HOBBS          MOCLDY    59  43  55 SE10      30.11R


$$



USA.gov is the U.S. government's official web portal to all federal, state and local government web resources and services.